Sciotoville, Ohio
Current Conditions -  °F | °C
As of 4:55 AM on Sunday 21 Dec 2014 (Local Time) from KDWU Reporting Station
Overcast Overcast  
Wind Chill: 32°   Ceiling: 2300
Heat Index: 32°   Visibility: 10mi
Dew Point: 23°   Wind: 0mph
Humidity: 69%   Direction: NA
Pressure: 30.28"   Gusts: NA
Location:  38.7891°N, 82.914°W
Report Text: KDWU 210955Z AUTO 00000KT 10SM OVC023 00/M05 A3028 RMK AO1
Loading
Personal Weather Stations






























Interactive Weather Map New forecast layout! Learn more

10-Day Weather Forecast

Advertisements
Track Severe Weather on mobile